Location: Sungai Anya
(2.6167°N, 114.0500°E)
Time: 20:28:36
(UTC+00:00)

Cosmos 1153 Rocket - Pass Details

Date: 30 May 2022
Orbit: 954 x 1005 km, 82.9° (Epoch: 02 July)

Event Time Altitude Azimuth Distance (km) Brightness Sun altitude
Rises 21:38:23 0° 360° (N) 3,717 7.9 -9.0°
Reaches altitude 10° 21:40:55 10° 1° (N) 2,770 7.2 -8.4°
Maximum altitude 21:47:17 77° 87° (E) 1,030 4.8 -6.9°
Drops below altitude 10° 21:53:39 10° 172° (S) 2,767 6.7 -5.5°
Sets 21:56:10 0° 174° (S) 3,713 7.4 -4.9°
